EW5212 Weather Reports


Display with metric or nautical units.
time (UTC)temp
F
wind
direction
speed
MPH
gust
MPH
rain 1hr
in
rain 24hr
in
rain mn
in
humidity
%
barometer
mb
20260510130610 66 0.0 3.0 0.00 0.00 0.00 83 1015.2
20260510125545 61 0.0 2.0 0.00 0.00 0.00 92 1014.9
20260510124545 58 0.0 0.0 0.00 0.00 0.00 99 1014.7
20260510123520 57 0.0 0.0 0.00 0.00 0.00 99 1014.7
20260510122520 56 0.0 0.0 0.00 0.00 0.00 99 1014.8
20260510121545 55 0.0 0.0 0.00 0.00 0.00 99 1014.5
20260510120520 53 0.0 0.0 0.00 0.00 0.00 98 1014.3
20260510115520 51 0.0 0.0 0.00 0.00 0.00 97 1014.2
20260510114520 50 0.0 0.0 0.00 0.00 0.00 97 1014.2
20260510113520 50 0.0 0.0 0.00 0.00 0.00 97 1014.2
20260510112545 49 0.0 0.0 0.00 0.00 0.00 96 1014.0
20260510111520 49 0.0 0.0 0.00 0.00 0.00 96 1013.9
20260510110520 49 0.0 0.0 0.00 0.00 0.00 96 1013.8
20260510105520 49 0.0 0.0 0.00 0.00 0.00 96 1013.7
20260510104520 49 0.0 0.0 0.00 0.00 0.00 96 1013.6
20260510103546 49 0.0 0.0 0.00 0.00 0.00 96 1013.3
20260510102545 49 0.0 0.0 0.00 0.00 0.00 95 1013.2
20260510101545 49 0.0 0.0 0.00 0.00 0.00 95 1013.0
20260510100520 49 0.0 0.0 0.00 0.00 0.00 95 1012.9
20260510095522 50 0.0 0.0 0.00 0.00 0.00 95 1013.0
20260510094523 50 0.0 0.0 0.00 0.00 0.00 95 1012.8
20260510093522 51 0.0 0.0 0.00 0.00 0.00 95 1012.9
20260510092522 51 0.0 0.0 0.00 0.00 0.00 95 1012.7
20260510091522 51 0.0 0.0 0.00 0.00 0.00 95 1012.6
20260510090522 52 0.0 0.0 0.00 0.00 0.00 95 1012.6
20260510085522 52 0.0 0.0 0.00 0.00 0.00 94 1012.5
20260510084522 53 0.0 0.0 0.00 0.00 0.00 94 1012.5
20260510083522 53 0.0 0.0 0.00 0.00 0.00 94 1012.4
20260510082522 54 0.0 0.0 0.00 0.00 0.00 94 1012.3
20260510081522 54 0.0 0.0 0.00 0.00 0.00 94 1012.1
20260510080547 55 0.0 0.0 0.00 0.00 0.00 94 1012.1
20260510075522 56 0.0 0.0 0.00 0.00 0.00 93 1012.1
20260510074522 56 0.0 0.0 0.00 0.00 0.00 93 1012.0
20260510073523 57 0.0 0.0 0.00 0.00 0.00 93 1012.0
20260510072547 57 0.0 0.0 0.00 0.00 0.00 92 1012.0
20260510071522 58 0.0 0.0 0.00 0.00 0.00 92 1011.9
20260510070522 58 0.0 0.0 0.00 0.00 0.00 91 1012.0
20260510065522 59 0.0 0.0 0.00 0.00 0.00 90 1012.0
20260510064522 60 0.0 0.0 0.00 0.00 0.00 89 1012.0
20260510063522 61 0.0 0.0 0.00 0.00 0.00 89 1011.9
20260510062522 61 0.0 0.0 0.00 0.00 0.00 88 1011.9
20260510061522 62 0.0 0.0 0.00 0.00 0.00 86 1012.0
20260510060522 63 0.0 1.0 0.00 0.00 0.00 86 1012.0
20260510055522 63 0.0 1.0 0.00 0.00 0.00 86 1012.0
20260510054522 64 0.0 1.0 0.00 0.00 0.00 85 1012.1
20260510053547 64 0.0 3.0 0.00 0.00 0.00 84 1012.0
20260510052522 65 270 1.0 2.0 0.00 0.00 0.00 84 1012.1
20260510051522 65 0.0 1.0 0.00 0.00 0.00 83 1012.1
20260510050547 65 0.0 1.0 0.00 0.00 0.00 82 1012.1
20260510045547 66 0.0 2.0 0.00 0.00 0.00 81 1012.0
20260510044522 66 0.0 1.0 0.00 0.00 0.00 81 1012.0
20260510043612 66 0.0 3.0 0.00 0.00 0.00 81 1012.0
20260510042522 66 0.0 2.0 0.00 0.00 0.00 80 1012.0
20260510041547 66 0.0 0.0 0.00 0.00 0.00 79 1012.1
20260510040521 66 0.0 1.0 0.00 0.00 0.00 79 1011.9
20260510035546 66 0.0 2.0 0.00 0.00 0.00 79 1011.9
20260510034522 66 0.0 0.0 0.00 0.00 0.00 79 1011.9
20260510033521 66 0.0 2.0 0.00 0.00 0.00 78 1011.9
20260510032521 66 0.0 1.0 0.00 0.00 0.00 78 1011.8
20260510031522 66 0.0 2.0 0.00 0.00 0.00 78 1011.8
20260510030521 66 0.0 0.0 0.00 0.00 0.00 78 1011.6
20260510025521 65 0.0 0.0 0.00 0.00 0.00 79 1011.5
20260510024521 65 0.0 0.0 0.00 0.00 0.00 80 1011.4
20260510023521 64 0.0 0.0 0.00 0.00 0.00 81 1011.4
20260510022521 63 0.0 0.0 0.00 0.00 0.00 82 1011.3
20260510021546 62 0.0 0.0 0.00 0.00 0.00 83 1011.1
20260510020523 61 0.0 0.0 0.00 0.00 0.00 84 1011.0
20260510015521 61 0.0 0.0 0.00 0.00 0.00 83 1010.8
20260510014521 62 0.0 0.0 0.00 0.00 0.00 82 1010.6
20260510013521 62 0.0 0.0 0.00 0.00 0.00 81 1010.7
20260510012521 63 0.0 0.0 0.00 0.00 0.00 80 1010.4
20260510011546 63 0.0 0.0 0.00 0.00 0.00 79 1010.4
20260510010522 64 0.0 0.0 0.00 0.00 0.00 78 1010.3
20260510005521 65 0.0 0.0 0.00 0.00 0.00 76 1010.2
20260510004521 66 0.0 0.0 0.00 0.00 0.00 74 1010.0
20260510003521 67 0.0 0.0 0.00 0.00 0.00 71 1009.9
20260510002521 69 0.0 0.0 0.00 0.00 0.00 69 1009.8
20260510001522 70 0.0 0.0 0.00 0.00 0.00 67 1009.8
20260510000521 71 0.0 0.0 0.00 0.00 0.00 65 1009.6
20260509235521 73 0.0 0.0 0.00 0.00 0.00 62 1009.5
20260509234521 74 0.0 0.0 0.00 0.00 0.00 60 1009.5
20260509233546 75 0.0 0.0 0.00 0.00 0.00 55 1009.5
20260509232521 76 270 1.0 3.0 0.00 0.00 0.00 54 1009.5
20260509231522 76 0.0 2.0 0.00 0.00 0.00 54 1009.5
20260509230546 76 270 1.0 7.0 0.00 0.00 0.00 54 1009.6
20260509225521 76 270 2.0 7.0 0.00 0.00 0.00 53 1009.5
20260509224522 77 68 1.0 4.0 0.00 0.00 0.00 53 1009.4
20260509223522 77 270 2.0 4.0 0.00 0.00 0.00 52 1009.4
20260509222521 77 293 2.0 9.0 0.00 0.00 0.00 52 1009.4
20260509221546 77 270 1.0 4.0 0.00 0.00 0.00 53 1009.6
20260509220521 78 270 1.0 4.0 0.00 0.00 0.00 51 1009.5
20260509215521 78 293 1.0 4.0 0.00 0.00 0.00 52 1009.4
20260509214521 77 270 2.0 6.0 0.00 0.00 0.00 52 1009.3
20260509213521 76 270 2.0 6.0 0.00 0.00 0.00 51 1009.2
20260509212521 77 293 2.0 6.0 0.00 0.00 0.00 53 1009.2
20260509211521 77 0.0 2.0 0.00 0.00 0.00 55 1009.2
20260509210521 77 270 1.0 4.0 0.00 0.00 0.00 55 1009.3
20260509205521 77 293 2.0 8.0 0.00 0.00 0.00 53 1009.2
20260509204611 79 293 2.0 7.0 0.00 0.00 0.00 50 1009.1
20260509203521 79 293 2.0 6.0 0.00 0.00 0.00 51 1008.9
20260509202521 79 293 3.0 9.0 0.00 0.00 0.00 51 1008.8
20260509201522 79 270 2.0 6.0 0.00 0.00 0.00 49 1008.9
20260509201459 78 270 2.0 7.0 0.00 0.00 0.00 52 1009.2
20260509155016 72 293 3.0 7.0 0.00 0.00 0.00 55 1011.8
20260509154016 73 270 3.0 10.0 0.00 0.00 0.00 56 1012.1
20260509153015 73 293 3.0 9.0 0.00 0.00 0.00 56 1012.3
20260509152016 72 90 3.0 6.0 0.00 0.00 0.00 58 1012.4
20260509151016 72 248 2.0 8.0 0.00 0.00 0.00 60 1012.5
20260509150015 71 293 1.0 6.0 0.00 0.00 0.00 65 1012.5
20260509145015 68 293 2.0 5.0 0.00 0.00 0.00 67 1012.8
20260509144015 68 68 1.0 3.0 0.00 0.00 0.00 69 1012.9
20260509143035 68 293 1.0 6.0 0.00 0.00 0.00 70 1013.2
20260509142016 67 270 1.0 5.0 0.00 0.00 0.00 71 1013.3
20260509141015 66 270 1.0 6.0 0.00 0.00 0.00 71 1013.3
20260509140015 66 270 1.0 5.0 0.00 0.00 0.00 72 1013.3
20260509135035 65 270 1.0 5.0 0.00 0.00 0.00 73 1013.3
20260509134015 65 0 1.0 5.0 0.00 0.00 0.00 74 1013.4
20260509133035 64 270 1.0 4.0 0.00 0.00 0.00 75 1013.6
20260509132016 64 293 2.0 12.0 0.00 0.00 0.00 75 1013.7
20260509131016 64 270 1.0 4.0 0.00 0.00 0.00 76 1013.7